Location: Byszew
(52.1813°N, 19.2693°E)
Time: 13:31:41
(UTC+00:00)

SeaSat 1 - Pass Details

Date: 03 March 2021
Orbit: 744 x 747 km, 108.0° (Epoch: 12 April)

Event Time Altitude Azimuth Distance (km) Brightness Sun altitude
Rises 17:53:29 0° 33° (NNE) 3,203 5.5 -14.1°
Reaches altitude 10° 17:55:47 10° 37° (NE) 2,275 4.7 -14.5°
Maximum altitude 18:00:41 60° 117° (ESE) 856 2.4 -15.2°
Drops below altitude 10° 18:05:33 10° 198° (SSW) 2,261 5.0 -16.0°
Sets 18:07:50 0° 202° (SSW) 3,182 5.9 -16.3°
